TimeMDT,TemperatureF,Dew PointF,Humidity,Sea Level PressureIn,VisibilityMPH,Wind Direction,Wind SpeedMPH,Gust SpeedMPH,PrecipitationIn,Events,Conditions,WindDirDegrees,DateUTC
12:53 AM,26.1,14.0,60,30.23,10.0,East,4.6,-,N/A,,Clear,100,2014-04-15 06:53:00
1:53 AM,24.1,16.0,71,30.22,10.0,ENE,8.1,-,N/A,,Clear,70,2014-04-15 07:53:00
2:53 AM,21.9,15.1,75,30.22,10.0,East,6.9,-,N/A,,Clear,90,2014-04-15 08:53:00
3:53 AM,21.9,15.1,75,30.20,10.0,NE,5.8,-,N/A,,Clear,50,2014-04-15 09:53:00
4:53 AM,19.9,12.9,74,30.19,10.0,NE,6.9,-,N/A,,Clear,40,2014-04-15 10:53:00
5:53 AM,18.0,12.9,81,30.19,10.0,Calm,Calm,-,N/A,,Clear,0,2014-04-15 11:53:00
6:53 AM,18.0,12.9,81,30.19,10.0,ENE,6.9,-,N/A,,Clear,60,2014-04-15 12:53:00
7:53 AM,28.0,16.0,61,30.18,10.0,ENE,6.9,-,N/A,,Clear,60,2014-04-15 13:53:00
8:53 AM,37.9,14.0,38,30.13,10.0,Calm,Calm,-,N/A,,Clear,0,2014-04-15 14:53:00
9:53 AM,43.0,14.0,31,30.14,10.0,Variable,3.5,-,N/A,,Clear,0,2014-04-15 15:53:00
10:53 AM,51.1,10.0,19,30.08,10.0,Variable,3.5,-,N/A,,Clear,0,2014-04-15 16:53:00
11:53 AM,55.9,12.0,18,30.06,10.0,SW,13.8,18.4,N/A,,Clear,220,2014-04-15 17:53:00
12:53 PM,57.0,12.0,17,30.04,10.0,SSW,11.5,16.1,N/A,,Clear,210,2014-04-15 18:53:00
1:53 PM,61.0,10.9,14,29.99,10.0,South,13.8,18.4,N/A,,Clear,190,2014-04-15 19:53:00
2:53 PM,60.1,6.1,12,29.97,10.0,WSW,5.8,-,N/A,,Clear,240,2014-04-15 20:53:00
3:53 PM,61.0,5.0,11,29.93,10.0,Variable,6.9,-,N/A,,Clear,0,2014-04-15 21:53:00
4:53 PM,60.1,3.9,11,29.91,10.0,WNW,11.5,-,N/A,,Clear,300,2014-04-15 22:53:00
5:53 PM,61.0,1.9,9,29.88,10.0,Calm,Calm,-,N/A,,Clear,0,2014-04-15 23:53:00
6:53 PM,57.9,8.1,14,29.88,10.0,East,4.6,-,N/A,,Clear,100,2014-04-16 00:53:00
7:53 PM,50.0,15.1,25,29.86,10.0,ESE,8.1,-,N/A,,Clear,110,2014-04-16 01:53:00
8:53 PM,41.0,16.0,36,29.87,10.0,NE,8.1,-,N/A,,Clear,40,2014-04-16 02:53:00
9:53 PM,37.9,15.1,39,29.88,10.0,ENE,6.9,-,N/A,,Clear,60,2014-04-16 03:53:00
10:53 PM,34.0,14.0,44,29.85,10.0,East,4.6,-,N/A,,Clear,80,2014-04-16 04:53:00
11:53 PM,32.0,15.1,50,29.83,10.0,ENE,4.6,-,N/A,,Clear,70,2014-04-16 05:53:00